{"data":{"norad_id":51793,"intl_designator":"2022-017AB","name":"STARLINK-3633","alt_names":[],"object_type":"PAYLOAD","status":"ACTIVE","operator":null,"country":"US","launch_date":"2022-02-25","launch_site_code":"AFWTR","launch_vehicle":null,"mission":null,"orbit_class":"UNKNOWN","rcs_meters":null,"size_class":null,"mass_kg":null,"dimensions":null,"purposes":["comms"],"wikipedia_slug":null,"has_3d_model":false,"image_url":null,"decayed_at":null,"tle_current":{"epoch":"2026-05-25T06:00:02.000160Z","epoch_age_seconds":47411,"freshness":"FRESH","line1":"1 51793U 22017AB  26145.25002315  .00458953  91714-4  14106-2 0  9997","line2":"2 51793  53.2158 331.8587 0000400 113.5274 192.1637 15.91311827  5869","mean_motion":15.91311827,"eccentricity":4.0e-5,"inclination_deg":53.2158,"raan_deg":331.8587,"arg_perigee_deg":113.5274,"mean_anomaly_deg":192.1637,"bstar":0.0014106,"rev_number":586,"period_min":90.49137796674,"perigee_km":298.34386775118,"apogee_km":298.87800758619,"semimajor_km":6676.7479376687,"source":"CELESTRAK","updated_at":"2026-05-25T13:38:16.955097Z"}}}